This is the latest recevied weather packets stored in our database for station/object LROD. If no packets are shown the sender has not sent any weather packets the latest 1 day(s).
| Time | Temp. | Humidity | Pressure | Rain* | Wind** | Luminosity | Snow |
|---|---|---|---|---|---|---|---|
| 1777993410 | 27.22° C | 18% | 1011 hPa | - | 5.81 m/s, 230° | - | - |
| 1777992510 | 27.78° C | 17% | 1012 hPa | - | 5.81 m/s, 230° | - | - |
| 1777991609 | 27.78° C | 17% | 1012 hPa | - | 5.81 m/s, 230° | - | - |
| 1777990709 | 27.78° C | 17% | 1012 hPa | - | 6.26 m/s, 200° | - | - |
| 1777989809 | 27.78° C | 17% | 1012 hPa | - | 6.26 m/s, 200° | - | - |
| 1777988948 | 27.78° C | 17% | 1012 hPa | - | 4.92 m/s, 230° | - | - |
| 1777988009 | 27.78° C | 17% | 1012 hPa | - | 4.92 m/s, 230° | - | - |
| 1777987109 | 27.22° C | 18% | 1013 hPa | - | 4.92 m/s, 230° | - | - |
| 1777986209 | 27.22° C | 18% | 1013 hPa | - | 4.92 m/s, 230° | - | - |
| 1777985309 | 27.78° C | 20% | 1013 hPa | - | 4.92 m/s, 200° | - | - |
| 1777984409 | 27.78° C | 20% | 1013 hPa | - | 4.92 m/s, 200° | - | - |
| 1777983509 | 27.22° C | 20% | 1013 hPa | - | 4.47 m/s, 220° | - | - |
| 1777982617 | 27.22° C | 20% | 1014 hPa | - | 5.81 m/s, 220° | - | - |
| 1777981717 | 27.22° C | 20% | 1014 hPa | - | 5.81 m/s, 220° | - | - |
| 1777980840 | 27.22° C | 20% | 1014 hPa | - | 5.81 m/s, 220° | - | - |
| 1777979910 | 26.11° C | 21% | 1014 hPa | - | 4.02 m/s, 230° | - | - |
| 1777979010 | 26.11° C | 21% | 1014 hPa | - | 4.02 m/s, 230° | - | - |
| 1777978110 | 26.11° C | 21% | 1014 hPa | - | 4.02 m/s, 200° | - | - |
| 1777977211 | 26.11° C | 21% | 1014 hPa | - | 4.02 m/s, 200° | - | - |
| 1777976310 | 25° C | 22% | 1015 hPa | - | 3.58 m/s, 240° | - | - |
| 1777975410 | 25° C | 22% | 1015 hPa | - | 3.58 m/s, 240° | - | - |
| 1777974511 | 25° C | 24% | 1015 hPa | - | 4.02 m/s, 240° | - | - |
| 1777973609 | 25° C | 24% | 1015 hPa | - | 4.02 m/s, 240° | - | - |
| 1777972709 | 25° C | 24% | 1015 hPa | - | 2.68 m/s, 220° | - | - |
| 1777971809 | 25° C | 24% | 1015 hPa | - | 2.68 m/s, 220° | - | - |
* Rain since midnight (hover to see other rain measurements)
** Current wind speed in m/s (hover to see current wind gust speed)